Home > Weather > Leoben > Past weeks

Flag for Austria Past Weather in Leoben, Styria, Austria — Yesterday and Last 2 Weeks

Now
75 °F

Passing clouds.


Feels Like: 78 °F
Forecast: 53 / 78 °F
Wind: 7 mph from Southeast

Location: Zeltweg

Current Time: Aug 25, 2016 at 6:56:56 PM

Latest Report: Aug 25, 2016 at 6:20 PM


Visibility: 25 mi

Pressure: 30.18 "Hg (28.36 "Hg at 540m altitude)

Humidity: 50%

Dew Point: 55 °F

Location of LeobenLocation

Past Weather in Leoben — Graph

°F

Leoben Temperature Yesterday

Maximum temperature yesterday: 79 °F (at 3:20 PM)
Minimum temperature yesterday: 48 °F (at 5:50 AM)
Average temperature yesterday: 67 °F

High & Low Weather Summary for the Past Weeks

 TemperatureHumidityPressure
High82 °F (Aug 14, 3:50 PM)100% (Aug 10, 7:50 PM)30.42 "Hg (Aug 10, 7:50 PM)
Low39 °F (Aug 12, 5:50 AM)34% (Aug 14, 2:20 PM)29.86 "Hg (Aug 18, 3:50 PM)
Average64 °F71%30.16 "Hg
* Reported Aug 10 5:50 PM — Aug 25 5:20 PM, Leoben, Weather by CustomWeather, © 2016

Note: Actual official high and low records may vary slightly from our data, if they occured in-between our weather recording intervals... More about our weather records

Advertising

Leoben Weather History for the Previous 24 Hours

Scroll right to see more
 ConditionsComfort  
Time TempWeatherWind HumidityBarometerVisibility
5:20 PM
Thu, Aug 25
77 °FPassing clouds.8 mph44%30.18 "Hg25 mi
4:50 PM77 °FPassing clouds.8 mph44%30.18 "Hg25 mi
4:20 PM77 °FPassing clouds.7 mph44%30.18 "Hg25 mi
3:50 PM79 °FPassing clouds.3 mph45%30.21 "Hg25 mi
3:20 PM79 °FPassing clouds.3 mph42%30.21 "Hg25 mi
2:50 PM77 °FPassing clouds.3 mph47%30.21 "Hg25 mi
2:20 PM77 °FPassing clouds.5 mph47%30.21 "Hg25 mi
1:50 PM75 °FPassing clouds.2 mph50%30.21 "Hg25 mi
1:20 PM75 °FPassing clouds.2 mph50%30.24 "Hg25 mi
12:50 PM73 °FPassing clouds.2 mph57%30.24 "Hg25 mi
12:20 PM72 °FPassing clouds.1 mph57%30.24 "Hg25 mi
11:50 AM70 °FPassing clouds.2 mph64%30.24 "Hg19 mi
11:20 AM66 °FPassing clouds.2 mph68%30.27 "Hg19 mi
10:50 AM66 °FPassing clouds.2 mph68%30.27 "Hg19 mi
10:20 AM63 °FPassing clouds.2 mph77%30.27 "Hg12 mi
9:50 AM61 °FPassing clouds.1 mph77%30.27 "Hg12 mi
9:20 AM59 °FPassing clouds.1 mph82%30.30 "Hg5 mi
8:50 AM55 °FFog.1 mph94%30.30 "Hg5 mi
8:20 AM55 °FFog.1 mph88%30.30 "Hg5 mi
7:50 AM54 °FFog.2 mph94%30.30 "Hg5 mi
7:20 AM54 °FFog.2 mph88%30.30 "Hg5 mi
6:50 AM52 °FFog.1 mph94%30.30 "Hg3 mi
5:50 AM52 °FPassing clouds.2 mph94%30.30 "Hg3 mi
10:50 PM
Wed, Aug 24
63 °FClear.2 mph77%30.30 "Hg25 mi
9:50 PM64 °FPassing clouds.2 mph73%30.30 "Hg25 mi
7:50 PM72 °FPassing clouds.8 mph57%30.27 "Hg31 mi
6:50 PM75 °FPassing clouds.7 mph50%30.24 "Hg31 mi
Weather by CustomWeather, © 2016

See weather overviewHow to use our weather pages